Temperature
25 24 23 25 30 29 27 27 27 27 26 25 25 25 25 24 24 22 20 19 18 18 18 18 18 18 18 18 18 18 18 18 18 18 18 18 18 18 18 18 18 18 18 18 18 18 17 17 17
24 24 24 29 30 28 27 27 27 26 25 25 25 25 25 23 22 20 19 18 18 18 18 17 18 18 18 18 18 18 18 18 18 18 18 18 18 18 18 18 18 18 18 17 17 17 17 17 17
24 24 28 31 29 28 27 27 26 26 25 25 25 24 24 22 21 20 19 18 18 18 18 17 18 18 18 18 18 18 18 18 18 18 18 18 18 18 18 18 18 18 17 17 17 17 17 17 17
24 27 30 30 28 28 28 27 27 26 25 25 25 24 22 21 21 20 19 19 19 18 18 17 18 18 18 18 18 18 18 18 18 18 18 18 18 18 18 17 17 17 17 17 17 17 17 17 17
26 31 31 29 28 28 28 27 27 27 26 25 25 24 22 20 20 19 19 19 19 19 18 17 18 18 18 18 18 18 18 18 18 18 18 18 18 18 17 17 17 17 17 17 17 17 17 17 17
30 32 31 29 28 28 28 27 27 26 25 25 25 24 22 20 20 19 19 19 19 19 18 17 18 18 18 18 18 18 18 18 18 18 18 17 17 17 17 18 18 18 17 17 17 17 17 17 17
31 32 30 30 28 28 28 27 27 26 26 25 25 25 22 21 20 20 19 19 19 19 18 18 18 18 18 18 18 18 18 18 18 18 18 18 18 17 17 17 17 17 17 17 17 17 17 17 17
31 33 31 30 29 28 28 27 26 26 25 24 25 25 23 21 20 19 19 19 19 19 18 18 18 18 17 17 18 18 18 18 18 18 18 18 18 18 17 17 17 17 17 17 17 17 17 17 17
31 33 31 31 30 29 28 27 26 26 25 25 24 24 22 20 20 20 19 19 19 18 18 18 18 18 18 18 17 17 18 18 18 17 18 17 17 17 17 17 17 17 17 17 17 17 17 17 17
32 32 31 31 31 30 28 28 27 26 26 25 24 22 21 20 20 20 20 20 19 19 18 18 18 18 18 18 17 17 17 17 17 17 17 17 17 17 17 17 17 17 17 17 17 17 17 17 17
33 32 31 30 30 29 28 28 27 27 27 26 24 22 21 21 21 21 20 20 19 19 18 18 18 17 18 18 18 17 17 17 17 17 17 17 17 17 17 17 17 17 17 17 17 17 17 17 17
32 31 31 30 29 29 29 28 28 27 26 25 24 23 22 22 21 21 20 20 19 19 18 18 18 18 18 18 18 17 17 17 17 17 17 17 17 17 17 17 17 17 17 17 17 17 17 17 17
32 31 30 29 29 29 28 28 28 27 25 24 23 23 22 22 22 21 20 20 19 19 18 18 18 18 18 18 18 17 17 17 17 17 17 17 17 17 17 17 17 17 17 17 17 17 17 17 17
31 30 30 29 29 28 29 28 28 26 25 24 24 23 23 22 21 21 20 19 19 19 18 18 18 18 18 18 18 17 17 17 17 17 17 17 17 17 17 17 17 17 17 17 17 17 17 17 17
31 31 30 30 29 29 29 29 29 26 25 25 24 23 23 22 21 21 20 20 19 19 18 18 18 18 18 18 17 17 17 17 17 17 17 17 17 17 17 17 17 17 17 17 17 17 17 17 17
32 32 31 30 30 29 30 29 29 26 26 25 25 24 23 22 22 21 20 20 19 19 18 18 18 18 18 18 18 17 17 17 17 17 17 17 17 17 17 17 17 17 17 17 17 17 17 17 17
32 32 32 31 31 30 30 30 29 27 27 26 25 25 24 23 22 21 20 20 19 19 19 18 18 18 18 18 18 17 17 17 17 17 17 17 17 17 17 17 17 17 17 17 17 17 17 17 17
32 32 32 31 31 30 30 30 29 27 27 27 26 25 24 24 23 22 21 20 20 19 19 19 19 18 18 18 18 17 17 17 17 17 17 17 17 17 17 17 17 17 17 17 17 17 17 17 17
33 32 32 31 31 31 30 30 30 28 28 28 27 26 25 24 23 22 21 20 20 19 19 19 19 19 18 18 18 18 17 17 17 17 17 17 17 17 17 17 17 17 17 17 17 17 17 17 17
33 32 32 31 30 30 30 30 31 29 28 28 27 26 25 25 23 22 21 21 20 20 19 19 19 19 18 18 18 18 18 17 17 17 17 17 17 17 17 17 17 17 17 17 17 17 17 17 17
32 32 32 31 30 31 31 31 30 30 28 28 27 27 26 25 24 23 22 21 20 20 20 19 19 19 19 18 18 18 18 18 17 17 17 17 17 17 17 17 17 17 17 17 17 17 17 17 17
32 32 32 31 31 31 31 31 31 30 29 29 28 27 27 26 24 23 22 21 21 20 20 20 20 20 19 19 18 18 18 18 18 17 17 17 17 17 17 17 17 17 17 17 17 17 17 17 17
32 32 32 32 32 32 31 31 32 31 30 30 29 28 27 26 25 24 23 22 21 21 20 20 20 20 20 19 19 18 18 18 18 18 18 17 17 17 17 17 17 17 17 17 17 17 17 17 17
31 31 31 32 32 31 31 31 31 32 31 31 30 28 27 26 25 24 23 22 22 21 20 20 20 20 20 20 19 19 18 18 18 18 18 18 17 17 17 17 17 17 17 17 17 17 17 17 17
32 32 31 31 31 31 31 31 31 32 31 31 30 29 27 26 25 24 23 22 22 21 21 20 20 20 20 20 19 19 19 18 18 18 18 18 17 17 17 17 17 17 17 17 17 17 17 17 17
32 32 31 30 30 31 30 31 32 32 31 30 29 29 27 26 25 24 23 23 22 22 21 21 20 20 20 20 20 19 19 18 18 18 18 18 17 17 17 17 17 17 17 17 17 17 16 16 16
32 32 33 32 31 31 32 32 32 31 31 30 29 28 27 26 26 25 24 23 23 22 21 21 21 21 20 20 20 19 19 19 18 18 18 18 18 17 17 17 17 17 17 17 17 16 16 16 16
32 32 32 31 30 30 31 31 32 31 31 31 30 29 28 27 26 25 24 23 23 22 22 21 21 21 20 20 20 19 19 19 19 18 18 18 18 18 17 17 17 17 17 16 16 16 16 16 16
30 31 31 31 31 30 30 31 32 32 31 31 30 29 28 27 26 25 24 23 23 22 22 21 21 21 20 20 20 19 19 19 18 18 18 18 18 17 17 17 17 17 16 16 16 16 16 16 16
32 32 31 30 29 30 31 31 32 32 32 31 30 29 28 27 26 25 24 23 23 22 22 21 21 21 20 20 20 20 19 19 18 18 18 18 18 17 17 17 17 16 16 16 16 16 15 15 15
Wind_Speed
13 10 6 4 3 10 15 12 11 9 8 9 9 8 10 11 9 8 6 7 7 8 10 10 9 9 10 10 10 11 11 12 12 13 13 14 14 14 15 15 16 16 16 16 15 16 16 16 16
9 6 5 1 8 12 13 12 12 11 9 8 9 10 12 11 10 9 8 7 7 8 9 10 9 9 9 9 10 11 11 12 12 13 13 14 14 14 15 15 15 16 16 15 15 15 15 15 15
7 6 2 6 13 14 13 11 11 10 8 7 8 9 8 9 8 7 9 8 7 8 8 10 8 8 8 9 10 10 11 11 12 12 13 13 14 14 14 14 15 15 15 15 14 14 14 14 14
4 3 2 10 16 14 12 10 9 10 10 8 8 10 9 8 6 8 10 8 8 8 8 11 7 8 8 9 9 10 10 11 11 11 12 12 13 13 13 14 14 14 14 14 13 13 13 13 12
4 1 9 14 15 13 11 9 7 9 8 9 9 12 11 9 10 11 9 8 8 8 8 11 8 8 8 9 9 9 10 10 10 11 12 12 12 12 13 13 13 13 13 13 12 12 12 11 11
1 3 10 13 14 11 10 8 9 11 11 10 11 12 9 8 9 9 9 7 7 7 8 10 8 7 8 8 9 9 9 10 11 11 11 11 11 11 11 12 12 12 12 12 11 11 11 10 10
3 8 12 13 12 11 9 7 9 10 10 9 7 10 9 9 9 9 8 7 6 7 7 7 9 9 8 8 8 9 9 10 10 10 10 10 10 11 10 10 10 11 11 10 10 10 10 9 9
2 6 11 11 11 11 9 8 8 9 9 7 4 7 10 11 9 9 8 7 6 5 5 5 6 7 7 9 9 8 9 9 9 9 9 9 10 10 9 10 10 9 9 9 9 9 9 8 8
1 6 11 10 10 10 9 9 8 7 9 7 7 9 13 13 10 9 8 7 6 5 4 4 6 6 5 7 9 8 8 7 7 8 7 5 6 8 8 10 9 8 8 7 7 7 8 8 9
2 9 12 9 10 11 9 8 8 7 9 9 11 12 13 12 9 8 7 6 6 5 5 4 3 4 4 5 5 5 5 6 5 6 5 5 5 5 7 9 7 7 7 7 6 6 8 7 7
6 10 10 9 9 11 10 9 6 7 8 8 11 13 12 10 8 6 6 5 5 5 4 4 4 3 3 3 3 3 4 4 5 5 4 4 3 4 4 5 7 6 6 6 7 6 3 4 4
7 9 8 9 9 9 9 9 7 7 8 9 12 13 11 9 7 6 6 5 4 4 4 3 3 3 2 2 2 3 3 3 3 4 2 3 2 2 3 2 3 3 3 3 3 3 3 4 4
8 9 9 10 9 9 9 8 8 8 8 10 12 12 10 8 7 6 5 4 4 4 3 3 2 2 3 2 1 2 2 2 3 2 2 1 2 2 2 2 1 2 3 4 3 2 3 3 3
8 10 10 10 10 8 8 7 6 8 10 11 11 10 9 7 6 5 4 4 3 3 3 3 3 3 3 3 2 1 2 2 2 1 1 1 1 1 1 2 2 2 2 2 2 2 2 2 2
11 11 10 8 7 6 6 7 6 9 10 11 10 9 8 7 7 6 5 4 4 3 3 3 3 3 3 4 4 3 2 3 2 2 1 1 1 1 1 1 2 1 2 2 2 2 2 2 2
8 7 6 6 6 6 6 5 9 10 11 10 9 9 8 7 7 6 6 5 4 4 3 3 3 3 3 3 3 2 2 1 1 1 2 1 1 1 2 1 1 2 2 2 2 2 1 1 1
7 3 3 6 7 6 6 3 9 10 11 10 9 9 8 8 7 7 7 6 5 4 4 4 3 3 3 3 3 2 2 1 1 1 1 2 2 2 2 1 1 2 2 2 3 2 2 2 1
3 2 2 3 6 8 6 4 8 10 10 10 9 9 8 8 7 7 7 6 6 5 5 4 4 3 3 2 2 2 2 2 1 1 1 2 2 2 3 2 2 3 2 2 2 1 2 1 2
2 3 1 3 4 6 6 5 7 10 11 10 9 9 8 8 7 7 7 6 6 6 5 5 4 3 3 2 2 2 3 2 2 2 1 2 2 2 3 2 2 3 2 2 3 2 3 3 2
5 4 2 4 4 4 4 5 6 10 12 10 10 9 9 8 8 8 7 7 7 7 6 6 5 4 4 3 2 1 1 1 1 1 1 2 2 2 3 2 3 2 3 3 3 3 3 3 3
6 4 2 3 5 5 4 6 7 9 10 10 10 10 10 9 9 10 9 9 8 7 7 5 5 5 4 4 3 2 2 2 2 2 1 1 2 2 2 2 3 2 3 3 3 4 5 4 3
6 3 3 5 6 2 4 2 5 8 9 11 11 11 11 10 10 10 10 10 9 8 7 7 6 6 5 5 4 3 2 2 1 1 0 1 1 1 2 2 2 3 3 3 4 4 4 4 4
2 3 4 5 5 4 3 4 3 6 8 10 11 11 11 11 11 10 10 10 9 9 8 7 7 6 6 5 4 4 3 2 1 1 1 1 1 1 1 2 2 2 3 3 4 3 4 4 4
7 6 5 6 7 5 2 5 1 3 4 6 9 10 11 11 11 10 10 10 9 9 8 8 7 7 6 6 5 4 3 2 1 1 1 1 1 1 1 2 2 2 2 2 3 3 4 4 4
9 8 6 7 7 4 2 4 2 2 2 4 8 10 11 12 12 11 11 11 10 10 9 8 8 7 7 6 5 4 3 3 2 2 1 2 1 1 1 1 2 2 2 2 3 3 3 3 4
12 12 9 7 6 4 4 4 0 2 2 4 7 10 11 12 12 12 12 12 11 11 10 10 9 8 7 6 5 4 4 3 2 2 2 1 1 1 1 1 1 2 2 2 2 3 2 2 3
11 12 9 8 8 7 4 3 3 3 5 6 8 10 11 12 12 13 12 12 12 11 11 11 10 9 8 7 6 5 4 3 2 2 2 2 1 1 1 1 1 2 2 2 2 1 2 1 2
7 9 7 9 8 8 6 7 3 4 5 7 8 10 11 12 12 12 12 12 11 11 10 10 10 9 8 7 6 5 4 4 3 2 1 1 1 1 1 1 1 1 1 1 1 1 0 0 1
9 10 9 8 9 9 8 3 0 3 5 7 9 10 11 12 12 12 11 11 11 10 10 10 10 9 8 7 6 5 5 4 3 2 2 1 1 1 1 1 0 1 1 0 0 0 0 0 0
11 12 12 10 9 9 10 4 3 1 4 5 7 8 10 11 11 11 11 11 11 11 10 10 10 9 8 8 7 6 5 4 4 3 2 2 2 1 1 1 1 0 0 0 1 0 0 0 0
Wind_Direction
168 178 210 235 110 73 67 67 70 76 70 63 62 63 65 50 47 82 97 95 101 100 99 101 83 79 79 77 76 79 81 81 82 84 89 89 91 93 95 97 100 102 103 104 106 109 109 112 115
169 187 226 254 68 76 70 68 71 71 86 91 79 76 76 67 66 95 110 105 110 101 99 91 90 83 82 81 79 78 80 83 84 86 89 90 92 95 96 97 100 103 105 107 107 108 110 111 114
178 226 301 62 61 66 76 76 83 85 85 85 84 69 65 75 83 95 106 120 112 97 98 98 97 91 87 83 82 81 82 85 87 88 90 91 93 95 95 96 98 101 103 105 108 109 111 112 114
211 209 83 71 72 68 78 86 96 95 84 81 94 86 79 67 79 101 117 121 115 112 104 98 96 95 91 87 85 85 86 87 89 89 90 91 91 92 94 95 97 99 100 103 106 110 111 113 115
244 90 84 79 77 76 78 80 82 85 83 88 93 96 89 80 95 111 121 123 115 106 100 103 94 92 90 88 87 86 87 89 91 91 91 92 94 94 95 96 97 99 101 102 104 107 111 113 117
236 70 75 81 84 86 85 85 89 92 98 98 100 100 93 108 115 119 120 117 111 110 107 108 109 95 93 92 91 88 88 90 92 92 92 93 94 94 94 95 98 100 102 102 103 104 106 110 115
30 65 76 84 92 92 84 87 89 98 100 94 100 101 112 122 120 123 119 117 112 108 110 115 123 121 115 99 93 92 91 93 94 95 96 97 96 96 96 96 99 101 103 105 104 104 105 107 112
3 83 83 83 88 92 102 96 94 99 97 104 99 104 123 131 133 129 127 125 118 113 111 112 107 113 124 118 105 97 94 95 98 98 100 109 115 112 116 114 103 103 104 106 107 109 112 113 117
270 75 75 77 85 103 119 114 103 99 108 96 81 92 117 132 139 138 135 132 125 118 112 112 114 116 115 111 118 123 118 113 127 117 118 143 121 118 125 98 103 107 107 108 110 116 125 132 132
60 71 74 75 88 111 121 115 120 124 116 110 108 110 124 139 146 146 142 140 137 136 136 124 114 114 115 110 117 123 121 115 108 100 107 104 95 97 105 114 114 115 123 127 125 142 164 179 141
71 78 92 97 100 113 120 116 120 118 112 120 130 135 141 146 150 148 142 137 132 143 142 135 134 137 129 117 120 115 111 115 116 108 116 108 123 128 128 135 142 144 159 148 146 173 153 129 119
94 89 101 109 116 118 114 114 111 96 95 119 134 142 149 153 150 145 144 144 141 147 149 142 140 144 135 121 126 141 130 124 112 113 119 121 122 127 113 133 129 150 138 126 135 126 113 110 119
105 108 111 118 124 117 117 112 106 103 111 127 137 148 153 154 146 137 133 140 146 152 159 158 166 168 170 168 204 131 127 121 117 122 114 116 145 142 133 132 140 154 137 145 141 131 121 123 134
115 121 123 129 126 133 127 121 122 118 132 138 148 157 160 158 153 145 149 155 160 165 171 172 183 180 184 185 195 175 171 162 148 154 133 164 137 122 160 166 174 173 166 138 144 130 134 131 116
134 132 132 139 146 147 151 133 128 138 148 152 158 162 166 168 167 171 172 173 172 176 186 192 190 185 194 198 205 197 195 182 176 165 177 201 179 161 212 177 189 176 174 164 175 152 157 164 154
163 166 152 152 170 172 216 119 135 155 164 164 167 170 177 181 184 183 182 184 185 186 189 202 205 177 195 203 218 213 205 183 183 185 180 190 188 204 230 230 198 185 199 190 191 211 196 186 180
191 191 130 151 185 186 216 132 144 168 176 175 179 181 184 184 192 188 189 190 191 192 193 195 208 207 207 201 207 209 199 213 221 201 183 166 180 194 221 244 240 215 209 214 231 184 208 192 207
186 182 144 154 176 202 212 180 157 179 190 188 187 189 189 192 192 187 188 192 190 189 188 192 191 201 211 198 188 203 200 198 198 188 161 187 194 205 232 216 225 238 224 221 220 217 219 225 217
239 230 168 115 152 206 221 216 183 185 198 199 197 195 195 195 185 181 184 190 186 182 184 189 193 184 202 203 209 200 191 192 179 186 175 202 226 222 234 259 223 245 240 237 230 225 211 214 197
224 222 168 132 160 215 226 231 202 196 204 207 204 200 201 194 185 182 184 185 187 183 186 187 189 189 198 188 207 217 220 206 198 217 178 228 239 249 230 241 252 232 232 232 232 227 245 234 214
217 232 213 161 167 204 237 217 201 196 203 207 213 209 203 198 193 186 188 188 187 186 188 187 186 187 192 194 198 194 191 204 197 196 199 225 242 258 281 266 268 260 243 230 241 235 233 241 235
214 227 216 185 210 193 247 283 169 189 198 204 208 208 203 196 193 189 187 189 188 186 183 185 184 184 184 193 205 209 210 213 214 235 171 184 209 269 271 269 261 260 259 246 250 241 247 244 247
202 155 188 208 241 255 228 285 132 176 199 200 200 200 196 190 188 187 187 186 187 184 179 179 180 180 181 187 192 208 218 225 214 191 151 233 194 254 279 276 267 266 268 266 271 272 264 254 255
149 156 174 219 242 247 264 277 270 151 193 185 183 187 187 183 182 182 181 180 183 181 180 176 174 179 180 185 192 201 207 222 244 249 255 242 228 226 271 278 274 271 285 286 276 272 265 269 268
199 211 219 224 227 238 167 263 312 83 143 177 176 178 179 179 179 179 178 180 182 182 181 179 175 178 180 182 189 194 203 206 215 245 248 283 295 280 304 291 286 294 293 285 277 266 272 267 263
215 229 242 251 251 229 192 251 92 106 137 166 169 169 173 176 178 178 178 179 182 182 182 182 179 179 180 182 185 190 201 211 210 228 271 276 298 323 334 307 294 289 290 286 276 269 263 263 267
212 228 251 254 263 267 241 244 235 175 168 166 167 168 173 176 178 179 177 179 181 183 184 184 180 179 181 183 182 185 191 204 206 212 234 254 270 279 288 296 290 285 282 287 269 281 285 278 273
242 224 226 242 249 255 244 240 236 189 185 176 173 173 174 175 177 177 176 179 179 181 182 183 181 179 180 182 187 180 182 187 199 219 230 280 293 296 285 297 288 271 264 260 266 252 305 287 309
197 211 225 238 253 259 257 245 81 213 194 185 176 175 175 176 176 173 174 175 174 177 178 179 178 177 178 180 181 181 179 180 187 196 213 216 249 262 268 279 280 278 264 222 217 260 181 185 16
226 222 215 227 232 247 266 261 85 185 194 182 176 172 175 175 173 170 169 170 173 175 174 172 174 177 179 176 176 176 175 177 180 178 194 180 194 204 184 175 145 101 55 129 178 194 121 102 67
Height
1503 1503 1503 1505 1498 1503 1513 1513 1511 1514 1518 1522 1522 1522 1523 1525 1527 1538 1542 1541 1541 1542 1541 1540 1539 1539 1539 1539 1538 1538 1538 1537 1537 1536 1536 1536 1536 1537 1538 1538 1539 1540 1541 1541 1542 1544 1545 1546 1548
1505 1505 1506 1501 1499 1514 1520 1515 1517 1519 1523 1524 1525 1525 1526 1531 1535 1540 1541 1542 1543 1544 1544 1542 1541 1541 1541 1541 1541 1541 1540 1540 1540 1539 1539 1539 1540 1540 1540 1541 1542 1542 1544 1545 1546 1547 1548 1549 1550
1506 1506 1506 1498 1506 1515 1521 1518 1521 1523 1525 1525 1527 1529 1531 1536 1540 1542 1543 1544 1545 1545 1545 1543 1543 1543 1543 1543 1543 1543 1543 1543 1543 1543 1543 1543 1543 1543 1544 1544 1545 1546 1547 1548 1548 1550 1551 1552 1553
1509 1508 1504 1504 1514 1516 1517 1520 1522 1523 1527 1528 1528 1532 1537 1541 1542 1544 1544 1545 1546 1547 1547 1545 1545 1545 1545 1545 1545 1545 1545 1545 1545 1545 1545 1546 1546 1546 1547 1547 1548 1549 1550 1550 1551 1552 1553 1554 1555
1509 1504 1503 1511 1516 1517 1519 1522 1523 1524 1527 1530 1531 1534 1540 1544 1544 1545 1546 1547 1548 1549 1549 1548 1546 1547 1547 1547 1547 1547 1547 1547 1548 1548 1548 1548 1549 1549 1549 1550 1550 1551 1552 1553 1554 1554 1555 1556 1557
1507 1500 1506 1517 1520 1520 1522 1525 1525 1527 1531 1533 1534 1536 1543 1546 1546 1547 1548 1549 1549 1550 1550 1549 1548 1548 1549 1549 1549 1549 1549 1550 1550 1550 1550 1551 1551 1552 1552 1552 1553 1554 1554 1555 1556 1557 1558 1558 1559
1507 1502 1510 1514 1520 1521 1524 1526 1527 1529 1532 1535 1536 1537 1543 1547 1548 1548 1549 1550 1551 1551 1551 1552 1552 1550 1550 1551 1551 1551 1551 1551 1552 1552 1553 1553 1553 1554 1554 1555 1555 1556 1557 1557 1558 1559 1560 1560 1561
1508 1503 1509 1513 1518 1523 1526 1528 1530 1531 1535 1538 1538 1538 1543 1548 1548 1549 1550 1551 1552 1552 1553 1553 1554 1554 1554 1553 1553 1553 1553 1553 1554 1554 1555 1555 1556 1556 1556 1557 1557 1558 1559 1559 1560 1561 1561 1562 1563
1509 1505 1512 1514 1517 1523 1527 1529 1533 1534 1536 1538 1540 1541 1545 1548 1549 1551 1551 1552 1553 1553 1554 1554 1555 1555 1556 1556 1555 1555 1555 1555 1556 1556 1556 1557 1559 1559 1559 1559 1559 1560 1560 1561 1562 1562 1563 1564 1564
1507 1508 1514 1515 1516 1522 1527 1529 1532 1534 1536 1539 1542 1545 1547 1549 1550 1552 1553 1553 1554 1554 1555 1555 1556 1556 1556 1557 1557 1557 1558 1557 1558 1558 1559 1559 1559 1560 1561 1560 1561 1561 1562 1563 1563 1564 1564 1566 1567
1509 1512 1516 1519 1521 1524 1527 1530 1532 1532 1535 1539 1543 1546 1548 1550 1552 1553 1554 1554 1555 1555 1556 1556 1556 1556 1557 1558 1558 1559 1559 1558 1559 1559 1560 1560 1561 1562 1562 1563 1563 1563 1564 1565 1565 1566 1567 1568 1568
1513 1517 1519 1521 1525 1526 1528 1531 1533 1534 1538 1541 1544 1547 1549 1551 1552 1553 1554 1555 1556 1556 1557 1557 1557 1557 1557 1558 1559 1559 1560 1560 1560 1560 1561 1561 1562 1562 1563 1564 1565 1565 1565 1566 1567 1567 1568 1568 1568
1515 1519 1522 1524 1526 1528 1530 1532 1534 1537 1541 1543 1545 1548 1550 1551 1553 1554 1555 1555 1556 1556 1557 1557 1557 1557 1557 1557 1559 1559 1560 1560 1560 1560 1561 1561 1562 1563 1564 1564 1564 1565 1566 1566 1566 1567 1567 1568 1568
1517 1520 1523 1525 1528 1530 1531 1533 1535 1539 1542 1544 1547 1549 1550 1552 1553 1554 1555 1555 1556 1557 1557 1557 1557 1557 1557 1557 1558 1559 1559 1559 1560 1561 1561 1561 1562 1563 1563 1564 1564 1565 1566 1567 1567 1567 1567 1568 1569
1519 1520 1523 1526 1527 1529 1530 1532 1534 1539 1542 1545 1547 1549 1550 1552 1553 1554 1555 1555 1556 1557 1557 1557 1557 1557 1557 1558 1558 1559 1559 1559 1560 1560 1560 1561 1562 1562 1563 1564 1564 1565 1565 1566 1566 1567 1567 1568 1568
1516 1517 1521 1524 1526 1529 1529 1532 1534 1539 1541 1543 1546 1548 1550 1552 1553 1554 1554 1555 1556 1556 1556 1556 1557 1557 1557 1557 1557 1559 1559 1559 1559 1560 1560 1560 1561 1561 1562 1563 1563 1564 1564 1565 1565 1566 1567 1567 1568
1514 1516 1519 1523 1524 1525 1526 1528 1533 1537 1539 1542 1544 1546 1548 1550 1552 1553 1554 1554 1555 1555 1556 1556 1556 1557 1557 1557 1557 1558 1558 1558 1559 1559 1559 1559 1560 1560 1561 1562 1562 1563 1564 1564 1565 1565 1566 1566 1566
1516 1515 1517 1520 1520 1523 1524 1525 1530 1535 1537 1539 1542 1544 1546 1548 1550 1552 1553 1554 1554 1555 1555 1555 1556 1556 1556 1557 1556 1557 1557 1558 1558 1558 1558 1559 1559 1559 1560 1561 1561 1562 1563 1563 1563 1563 1564 1564 1565
1509 1513 1516 1517 1518 1521 1523 1523 1525 1531 1534 1536 1539 1541 1544 1546 1549 1550 1551 1552 1553 1554 1554 1555 1555 1555 1555 1556 1556 1557 1557 1558 1558 1558 1558 1558 1558 1558 1559 1560 1560 1560 1561 1561 1562 1562 1563 1563 1564
1510 1514 1516 1518 1520 1521 1521 1521 1521 1526 1530 1533 1536 1539 1542 1544 1547 1548 1550 1551 1552 1553 1553 1554 1554 1555 1555 1555 1555 1556 1556 1557 1557 1557 1557 1557 1557 1558 1558 1558 1559 1559 1560 1560 1560 1561 1562 1562 1563
1511 1512 1514 1518 1519 1519 1520 1521 1519 1522 1527 1531 1533 1536 1538 1541 1544 1546 1548 1549 1551 1551 1552 1553 1553 1554 1554 1554 1555 1556 1555 1556 1557 1557 1556 1556 1557 1557 1556 1557 1557 1558 1558 1559 1559 1559 1560 1561 1561
1514 1509 1512 1516 1519 1518 1519 1524 1517 1517 1522 1526 1529 1532 1535 1538 1541 1544 1546 1547 1549 1550 1551 1551 1552 1552 1553 1553 1554 1555 1555 1556 1556 1556 1556 1556 1555 1555 1555 1556 1556 1556 1557 1557 1558 1558 1558 1559 1559
1510 1511 1512 1514 1516 1517 1517 1521 1515 1514 1518 1520 1523 1527 1531 1535 1538 1541 1544 1546 1547 1549 1550 1550 1551 1552 1552 1553 1553 1554 1555 1555 1556 1555 1555 1554 1555 1554 1554 1555 1555 1555 1555 1556 1556 1556 1556 1557 1557
1511 1513 1515 1513 1513 1527 1520 1523 1519 1509 1513 1514 1519 1524 1528 1532 1536 1539 1542 1544 1546 1548 1549 1550 1550 1551 1551 1552 1553 1553 1554 1554 1554 1554 1554 1554 1554 1554 1553 1553 1553 1553 1554 1554 1554 1554 1554 1554 1554
1511 1516 1526 1530 1528 1526 1516 1521 1516 1507 1509 1512 1516 1521 1526 1530 1533 1536 1539 1542 1544 1546 1547 1548 1549 1550 1551 1551 1552 1552 1553 1553 1553 1554 1554 1554 1554 1553 1553 1553 1552 1552 1552 1552 1552 1552 1552 1552 1552
1508 1509 1526 1536 1532 1520 1518 1519 1508 1506 1510 1513 1515 1519 1523 1527 1531 1534 1536 1539 1542 1544 1545 1547 1547 1549 1550 1551 1551 1552 1552 1553 1553 1553 1553 1553 1553 1552 1552 1551 1551 1551 1550 1550 1550 1550 1550 1550 1550
1507 1507 1501 1512 1518 1523 1515 1511 1505 1505 1508 1511 1514 1517 1521 1525 1528 1532 1534 1537 1540 1542 1543 1545 1546 1547 1549 1550 1551 1551 1551 1552 1552 1552 1552 1552 1552 1552 1551 1550 1550 1549 1549 1548 1548 1548 1548 1548 1548
1501 1501 1508 1514 1531 1533 1522 1515 1509 1505 1506 1508 1512 1515 1519 1523 1526 1530 1532 1535 1538 1540 1542 1543 1545 1546 1548 1549 1550 1551 1551 1551 1551 1551 1551 1551 1551 1550 1550 1549 1549 1548 1548 1547 1547 1547 1547 1546 1546
1507 1507 1507 1509 1513 1526 1528 1516 1498 1501 1503 1505 1509 1513 1517 1520 1524 1527 1530 1533 1536 1538 1539 1541 1543 1544 1546 1547 1548 1549 1549 1550 1550 1550 1550 1550 1550 1549 1549 1548 1548 1547 1547 1546 1546 1546 1546 1545 1545
1498 1499 1505 1517 1521 1517 1518 1513 1497 1500 1501 1504 1508 1512 1516 1519 1523 1526 1528 1531 1533 1536 1537 1539 1541 1543 1544 1545 1547 1547 1548 1548 1549 1549 1549 1549 1549 1548 1548 1547 1547 1546 1546 1545 1545 1545 1545 1544 1544